HS2LXA-WX Weather Reports


Display with metric or nautical units.
time (UTC)temp
F
wind
direction
speed
MPH
gust
MPH
rain 1hr
in
rain 24hr
in
rain mn
in
humidity
%
barometer
mb
20260502152211 90 67 34.0 76.0 0.00 0.00 0.00 68 1013.1
20260502151212 91 0 6.0 14.0 0.00 0.00 0.00 68 1013.2
20260502122909 92 0 2.0 5.0 0.00 0.00 0.00 62 1013.1
20260502121909 92 112 4.0 10.0 0.00 0.00 0.00 62 1013.2
20260502120438 92 315 5.0 11.0 0.00 0.00 0.00 62 1013.1
20260502115436 93 0 4.0 10.0 0.00 0.00 0.00 62 1013.2
20260502114433 92 67 2.0 5.0 0.00 0.00 0.00 63 1013.2
20260502113236 92 225 15.0 35.0 0.00 0.00 0.00 63 1013.2
20260502112234 94 67 6.0 14.0 0.00 0.00 0.00 59 1013.2
20260502111127 94 225 0.0 2.0 0.00 0.00 0.00 60 1013.2
20260502105138 95 225 1.0 2.0 0.00 0.00 0.00 59 1013.1
20260502103703 95 112 2.0 5.0 0.00 0.00 0.00 60 1013.1
20260502102704 95 67 2.0 6.0 0.00 0.00 0.00 62 1013.1
20260502101645 93 315 5.0 12.0 0.00 0.00 0.00 63 1013.2
20260502100644 94 202 2.0 5.0 0.00 0.00 0.00 62 1013.2
20260502090552 94 67 5.0 11.0 0.00 0.00 0.00 60 1013.1
20260502070714 97 112 13.0 30.0 0.00 0.00 0.00 56 1013.2
20260502065712 96 112 3.0 7.0 0.00 0.00 0.00 57 1013.1
20260502064709 97 112 5.0 12.0 0.00 0.00 0.00 56 1013.1
20260502063432 97 225 3.0 7.0 0.00 0.00 0.00 57 1013.1
20260502062326 96 112 9.0 20.0 0.00 0.00 0.00 58 1013.2
20260502061327 97 202 8.0 17.0 0.00 0.00 0.00 59 1013.1
20260502060324 96 225 6.0 13.0 0.00 0.00 0.00 57 1013.1
20260502054528 96 225 3.0 7.0 0.00 0.00 0.00 57 1013.1
20260502053331 95 135 25.0 57.0 0.00 0.00 0.00 58 1013.2
20260502052331 96 112 11.0 26.0 0.00 0.00 0.00 59 1013.2
20260502051331 96 315 25.0 56.0 0.00 0.00 0.00 60 1013.2
20260502050331 96 225 8.0 18.0 0.00 0.00 0.00 61 1013.1
20260502045331 96 202 0.0 0.0 0.00 0.00 0.00 62 1013.2
20260502044332 96 112 0.0 0.0 0.00 0.00 0.00 61 1013.1
20260502043329 96 0 0.0 0.0 0.00 0.00 0.00 62 1013.2
20260502042326 95 315 0.0 0.0 0.00 0.00 0.00 62 1013.1
20260502041325 96 112 0.0 0.0 0.00 0.00 0.00 60 1013.1
20260502040326 97 112 0.0 0.0 0.00 0.00 0.00 60 1013.1
20260502035324 96 225 0.0 0.0 0.00 0.00 0.00 59 1013.1
20260502034325 97 0 0.0 0.0 0.00 0.00 0.00 59 1013.2
20260502033111 96 0 0.0 0.0 0.00 0.00 0.00 60 1013.1
20260502032111 95 67 0.0 0.0 0.00 0.00 0.00 61 1013.2
20260502031111 95 0 0.0 0.0 0.00 0.00 0.00 61 1013.1
20260502030111 95 0 0.0 0.0 0.00 0.00 0.00 62 1013.2
20260502025110 94 112 0.0 0.0 0.00 0.00 0.00 65 1013.2
20260502024109 93 67 1.0 3.0 0.00 0.00 0.00 66 1013.1
20260502023110 92 225 8.0 19.0 0.00 0.00 0.00 68 1013.1
20260502022106 91 0 4.0 9.0 0.00 0.00 0.00 67 1013.1
20260502021105 91 225 1.0 2.0 0.00 0.00 0.00 65 1013.2
20260502014809 90 135 0.0 0.0 0.00 0.00 0.00 64 1013.2
20260502013808 90 225 0.0 2.0 0.00 0.00 0.00 62 1013.2
20260502012807 90 225 3.0 6.0 0.00 0.00 0.00 61 1013.2
20260502011250 89 225 0.0 1.0 0.00 0.00 0.00 63 1013.1
20260502010250 89 0 0.0 1.0 0.00 0.00 0.00 63 1013.1
20260502005249 89 112 0.0 2.0 0.00 0.00 0.00 63 1013.1
20260502004249 89 270 0.0 0.0 0.00 0.00 0.00 65 1013.1
20260502003249 89 112 1.0 2.0 0.00 0.00 0.00 64 1013.2
20260502002248 88 270 13.0 29.0 0.00 0.00 0.00 66 1013.2
20260502001249 89 90 7.0 17.0 0.00 0.00 0.00 65 1013.1
20260502000248 88 0 0.0 0.0 0.00 0.00 0.00 66 1013.1
20260501235247 88 0 4.0 10.0 0.00 0.00 0.00 67 1013.2
20260501234247 88 112 0.0 0.0 0.00 0.00 0.00 66 1013.1
20260501233247 89 225 0.0 0.0 0.00 0.00 0.00 66 1013.1
20260501232247 89 112 6.0 14.0 0.00 0.00 0.00 67 1013.2
20260501230447 88 22 12.0 26.0 0.00 0.00 0.00 73 1013.1
20260501224256 90 0 4.0 9.0 0.00 0.00 0.00 74 1013.1
20260501223114 89 0 9.0 21.0 0.00 0.00 0.00 75 1013.2
20260501222115 90 202 4.0 10.0 0.00 0.00 0.00 73 1013.2
20260501221111 90 67 0.0 1.0 0.00 0.00 0.00 73 1013.1
20260501220112 90 202 1.0 3.0 0.00 0.00 0.00 73 1013.1
20260501215111 90 202 4.0 11.0 0.00 0.00 0.00 73 1013.2
20260501214108 90 135 6.0 13.0 0.00 0.00 0.00 73 1013.2
20260501213107 89 315 9.0 21.0 0.00 0.00 0.00 74 1013.1
20260501212106 90 112 7.0 16.0 0.00 0.00 0.00 73 1013.1
20260501210358 90 67 3.0 7.0 0.00 0.00 0.00 73 1013.2
20260501205358 89 67 0.0 0.0 0.00 0.00 0.00 73 1013.1
20260501204357 90 112 0.0 0.0 0.00 0.00 0.00 73 1013.1
20260501203209 90 202 0.0 0.0 0.00 0.00 0.00 72 1013.2
20260501202205 90 67 0.0 0.0 0.00 0.00 0.00 71 1013.1
20260501201205 90 67 0.0 0.0 0.00 0.00 0.00 71 1013.1
20260501200205 90 202 0.0 0.0 0.00 0.00 0.00 71 1013.1
20260501195204 90 0 0.0 0.0 0.00 0.00 0.00 72 1013.1
20260501194202 90 67 0.0 0.0 0.00 0.00 0.00 71 1013.1
20260501193202 90 202 0.0 0.0 0.00 0.00 0.00 72 1013.2
20260501192202 90 67 0.0 0.0 0.00 0.00 0.00 72 1013.1
20260501191200 90 315 0.0 0.0 0.00 0.00 0.00 72 1013.2
20260501190200 90 67 0.0 0.0 0.00 0.00 0.00 73 1013.1
20260501185200 90 67 0.0 0.0 0.00 0.00 0.00 73 1013.1
20260501184200 90 202 0.0 0.0 0.00 0.00 0.00 73 1013.2
20260501183048 90 67 0.0 0.0 0.00 0.00 0.00 72 1013.1
20260501182048 90 315 0.0 0.0 0.00 0.00 0.00 71 1013.1
20260501181049 90 112 0.0 0.0 0.00 0.00 0.00 72 1013.2
20260501175328 90 112 1.0 2.0 0.00 0.00 0.00 73 1013.1
20260501174329 89 0 9.0 21.0 0.00 0.00 0.00 76 1013.1
20260501173328 87 225 12.0 28.0 0.00 0.00 0.00 81 1013.1
20260501171735 87 0 0.0 0.0 0.00 0.00 0.00 81 1013.2
20260501170301 87 112 0.0 0.0 0.00 0.00 0.00 81 1013.1
20260501165011 87 112 0.0 0.0 0.00 0.00 0.18 81 1013.1
20260501164007 88 0 0.0 0.0 0.00 0.00 0.18 80 1013.2
20260501163006 87 112 0.0 0.0 0.00 0.00 0.18 80 1013.1
20260501162005 86 0 0.0 0.0 0.00 0.00 0.18 83 1013.2
20260501160912 87 135 0.0 0.0 0.00 0.00 0.18 83 1013.1
20260501155914 86 0 0.0 0.0 0.00 0.00 0.18 83 1013.2